,,,PA_Meas_PMT16A,,PR_Meas_QMR101_102,,RH_Meas_QMH101,,SR_Meas_QMS101,,TA_Meas_QMH101,,GenWind,,GenWind,
date,time,status,PA,status,PR,status,RH,status,SR,status,TA,status,DirAvg,status,SpdAvg,
2010-07-05, 00:00:04,VALID,1001.32,VALID,0,VALID,93.9969,VALID,0,VALID,23.5451,VALID,123,VALID,0.58125,
2010-07-05, 00:01:04,VALID,1001.35,VALID,0,VALID,93.9969,VALID,0,VALID,23.5451,VALID,123,VALID,0.173047,
2010-07-05, 00:02:04,VALID,1001.34,VALID,0,VALID,93.9817,VALID,0,VALID,23.5451,VALID,123,VALID,0,
2010-07-05, 00:03:04,VALID,1001.32,VALID,0,VALID,94.0045,VALID,0,VALID,23.5451,VALID,123,VALID,0,
2010-07-05, 00:04:04,VALID,1001.3,VALID,0,VALID,93.9893,VALID,0,VALID,23.5451,VALID,123,VALID,0,
2010-07-05, 00:05:04,VALID,1001.27,VALID,0,VALID,93.9817,VALID,0,VALID,23.5451,VALID,123,VALID,0,
2010-07-05, 00:06:04,VALID,1001.27,VALID,0,VALID,93.9893,VALID,0,VALID,23.5451,VALID,123,VALID,0.857422,
2010-07-05, 00:07:04,VALID,1001.23,VALID,0,VALID,93.9817,VALID,0,VALID,23.5646,VALID,123,VALID,0.733984,
2010-07-05, 00:08:04,VALID,1001.21,VALID,0,VALID,93.9893,VALID,0,VALID,23.5646,VALID,123,VALID,0.627734,
2010-07-05, 00:09:04,VALID,1001.21,VALID,0,VALID,93.9893,VALID,0,VALID,23.5433,VALID,123,VALID,0.329297,
2010-07-05, 00:10:04,VALID,1001.2,VALID,0,VALID,93.9969,VALID,0,VALID,23.5646,VALID,123,VALID,0,
2010-07-05, 00:11:04,VALID,1001.21,VALID,0,VALID,93.9893,VALID,0,VALID,23.5646,VALID,123,VALID,0,
2010-07-05, 00:12:04,VALID,1001.22,VALID,0,VALID,93.9664,VALID,0,VALID,23.5433,VALID,123,VALID,0,
2010-07-05, 00:13:04,VALID,1001.28,VALID,0,VALID,93.9664,VALID,0,VALID,23.5646,VALID,123,VALID,0,
2010-07-05, 00:14:04,VALID,1001.25,VALID,0,VALID,93.9893,VALID,0,VALID,23.5646,VALID,123,VALID,0,
2010-07-05, 00:15:04,VALID,1001.3,VALID,0,VALID,93.9817,VALID,0,VALID,23.5841,VALID,123,VALID,0,
2010-07-05, 00:16:04,VALID,1001.31,VALID,0,VALID,93.9817,VALID,0,VALID,23.5628,VALID,123,VALID,0,
2010-07-05, 00:17:04,VALID,1001.28,VALID,0,VALID,93.974,VALID,0,VALID,23.5841,VALID,123,VALID,0,
2010-07-05, 00:18:04,VALID,1001.26,VALID,0,VALID,93.974,VALID,0,VALID,23.5628,VALID,123,VALID,0,
2010-07-05, 00:19:04,VALID,1001.27,VALID,0,VALID,93.974,VALID,0,VALID,23.5823,VALID,123,VALID,0,
2010-07-05, 00:20:04,VALID,1001.24,VALID,0,VALID,93.974,VALID,0,VALID,23.6214,VALID,123,VALID,0,
2010-07-05, 00:21:04,VALID,1001.22,VALID,0,VALID,93.9511,VALID,0,VALID,23.6019,VALID,123,VALID,0,
2010-07-05, 00:22:04,VALID,1001.18,VALID,0,VALID,93.9664,VALID,0,VALID,23.6019,VALID,123,VALID,0,
2010-07-05, 00:23:04,VALID,1001.16,VALID,0,VALID,93.9664,VALID,0.112286,VALID,23.6214,VALID,25,VALID,0,
2010-07-05, 00:24:04,VALID,1001.17,VALID,0,VALID,93.9664,VALID,0,VALID,23.6019,VALID,349,VALID,0,
2010-07-05, 00:25:04,VALID,1001.17,VALID,0,VALID,93.9511,VALID,0,VALID,23.561,VALID,349,VALID,0,
2010-07-05, 00:26:04,VALID,1001.2,VALID,0,VALID,93.9588,VALID,0,VALID,23.5628,VALID,349,VALID,0,
2010-07-05, 00:27:04,VALID,1001.21,VALID,0,VALID,93.9664,VALID,0.112286,VALID,23.5628,VALID,349,VALID,0,
2010-07-05, 00:28:04,VALID,1001.19,VALID,0,VALID,93.9435,VALID,0,VALID,23.522,VALID,349,VALID,0,
2010-07-05, 00:29:04,VALID,1001.16,VALID,0,VALID,93.9588,VALID,0,VALID,23.5628,VALID,295,VALID,0,
2010-07-05, 00:30:04,VALID,1001.12,VALID,0,VALID,93.9664,VALID,0.112286,VALID,23.5628,VALID,295,VALID,0,
2010-07-05, 00:31:04,VALID,1001.08,VALID,0,VALID,93.9588,VALID,0.112286,VALID,23.5433,VALID,295,VALID,0.757031,
2010-07-05, 00:32:04,VALID,1001.09,VALID,0,VALID,93.9664,VALID,0.112286,VALID,23.5238,VALID,295,VALID,0.697266,
2010-07-05, 00:33:04,VALID,1001.08,VALID,0,VALID,93.9664,VALID,0.112286,VALID,23.5433,VALID,295,VALID,0.430859,
2010-07-05, 00:34:04,VALID,1001.08,VALID,0,VALID,93.9588,VALID,0,VALID,23.5451,VALID,292,VALID,0.644141,
2010-07-05, 00:35:04,VALID,1001.09,VALID,0,VALID,93.9588,VALID,0,VALID,23.5238,VALID,287,VALID,0.429688,
2010-07-05, 00:36:04,VALID,1001.11,VALID,0,VALID,93.9588,VALID,0,VALID,23.5256,VALID,287,VALID,0.302344,
2010-07-05, 00:37:04,VALID,1001.05,VALID,0,VALID,93.9588,VALID,0,VALID,23.5451,VALID,284,VALID,0.400781,
2010-07-05, 00:38:04,VALID,1001.06,VALID,0,VALID,93.9588,VALID,0,VALID,23.5451,VALID,235,VALID,0.597266,
2010-07-05, 00:39:04,VALID,1001.04,VALID,0,VALID,93.9511,VALID,0,VALID,23.5256,VALID,235,VALID,0.600391,
2010-07-05, 00:40:04,VALID,1001.03,VALID,0,VALID,93.9511,VALID,0,VALID,23.5256,VALID,228,VALID,0.801953,
2010-07-05, 00:41:04,VALID,1001.02,VALID,0,VALID,93.9664,VALID,0,VALID,23.5451,VALID,226,VALID,0.484766,
2010-07-05, 00:42:04,VALID,1001.03,VALID,0,VALID,93.974,VALID,0,VALID,23.5451,VALID,226,VALID,0.607813,
2010-07-05, 00:43:04,VALID,1001.03,VALID,0,VALID,93.9435,VALID,0,VALID,23.5451,VALID,219,VALID,0.729297,
2010-07-05, 00:44:04,VALID,1001.01,VALID,0,VALID,93.9817,VALID,0,VALID,23.5238,VALID,225,VALID,0.632422,
2010-07-05, 00:45:04,VALID,1000.99,VALID,0,VALID,93.9664,VALID,0,VALID,23.5451,VALID,225,VALID,0.711719,
2010-07-05, 00:46:04,VALID,1000.99,VALID,0,VALID,93.9664,VALID,0,VALID,23.5238,VALID,227,VALID,0.772656,
2010-07-05, 00:47:04,VALID,1001,VALID,0,VALID,93.9664,VALID,0,VALID,23.5433,VALID,229,VALID,1.06992,
2010-07-05, 00:48:04,VALID,1001.02,VALID,0,VALID,93.9588,VALID,0,VALID,23.5841,VALID,225,VALID,1.13437,
2010-07-05, 00:49:04,VALID,1001.01,VALID,0,VALID,93.9511,VALID,0,VALID,23.5841,VALID,217,VALID,1.02695,
2010-07-05, 00:50:04,VALID,1001.02,VALID,0,VALID,93.9511,VALID,0,VALID,23.5823,VALID,223,VALID,0.925391,
2010-07-05, 00:51:04,VALID,1001.02,VALID,0,VALID,93.9435,VALID,0,VALID,23.5841,VALID,227,VALID,1.20664,
2010-07-05, 00:52:04,VALID,1001.01,VALID,0,VALID,93.9435,VALID,0,VALID,23.6036,VALID,234,VALID,0.770312,
2010-07-05, 00:53:04,VALID,1000.97,VALID,0,VALID,93.9588,VALID,0,VALID,23.5841,VALID,233,VALID,0.753516,
2010-07-05, 00:54:04,VALID,1000.96,VALID,0,VALID,93.9359,VALID,0,VALID,23.5628,VALID,233,VALID,0.559766,
2010-07-05, 00:55:04,VALID,1000.93,VALID,0,VALID,93.9359,VALID,0,VALID,23.5823,VALID,245,VALID,0.394531,
2010-07-05, 00:56:04,VALID,1000.91,VALID,0,VALID,93.9359,VALID,0,VALID,23.5841,VALID,257,VALID,0.970312,
2010-07-05, 00:57:04,VALID,1000.85,VALID,0,VALID,93.9206,VALID,0,VALID,23.5646,VALID,257,VALID,0.6125,
2010-07-05, 00:58:04,VALID,1000.79,VALID,0,VALID,93.913,VALID,0,VALID,23.5451,VALID,276,VALID,0.743359,
2010-07-05, 00:59:04,VALID,1000.74,VALID,0,VALID,93.913,VALID,0,VALID,23.5256,VALID,287,VALID,0.909766,
2010-07-05, 01:00:04,VALID,1000.7,VALID,0,VALID,93.9206,VALID,0,VALID,23.4848,VALID,287,VALID,0.610937,
2010-07-05, 01:01:04,VALID,1000.72,VALID,0,VALID,93.9054,VALID,0,VALID,23.4866,VALID,287,VALID,0.400781,
2010-07-05, 01:02:04,VALID,1000.72,VALID,0,VALID,93.913,VALID,0,VALID,23.4866,VALID,287,VALID,0,
2010-07-05, 01:03:04,VALID,1000.74,VALID,0,VALID,93.8977,VALID,0,VALID,23.4671,VALID,287,VALID,0,
2010-07-05, 01:04:04,VALID,1000.73,VALID,0,VALID,93.913,VALID,0,VALID,23.4263,VALID,287,VALID,0.0308594,
2010-07-05, 01:05:04,VALID,1000.71,VALID,0,VALID,93.8901,VALID,0,VALID,23.4067,VALID,287,VALID,0,
2010-07-05, 01:06:04,VALID,1000.72,VALID,0,VALID,93.8977,VALID,0,VALID,23.3872,VALID,287,VALID,0,
2010-07-05, 01:07:04,VALID,1000.65,VALID,0,VALID,93.913,VALID,0,VALID,23.4085,VALID,287,VALID,0,
2010-07-05, 01:08:04,VALID,1000.62,VALID,0,VALID,93.913,VALID,0,VALID,23.3872,VALID,287,VALID,0,
2010-07-05, 01:09:04,VALID,1000.61,VALID,0,VALID,93.9283,VALID,0,VALID,23.3677,VALID,287,VALID,0,
2010-07-05, 01:10:04,VALID,1000.61,VALID,0,VALID,93.913,VALID,0,VALID,23.3482,VALID,287,VALID,0,
2010-07-05, 01:11:04,VALID,1000.6,VALID,0,VALID,93.9435,VALID,0,VALID,23.3695,VALID,27,VALID,0,
2010-07-05, 01:12:04,VALID,1000.58,VALID,0,VALID,93.9588,VALID,0,VALID,23.3677,VALID,37,VALID,0.687109,
2010-07-05, 01:13:04,VALID,1000.58,VALID,0,VALID,93.9359,VALID,0,VALID,23.4067,VALID,52,VALID,0.732813,
2010-07-05, 01:14:04,VALID,1000.53,VALID,0,VALID,93.9664,VALID,0,VALID,23.3872,VALID,67,VALID,0.655859,
2010-07-05, 01:15:04,VALID,1000.54,VALID,0,VALID,93.9511,VALID,0,VALID,23.389,VALID,67,VALID,0.460156,
2010-07-05, 01:16:04,VALID,1000.56,VALID,0,VALID,93.9664,VALID,0,VALID,23.3677,VALID,67,VALID,0.448047,
2010-07-05, 01:17:04,VALID,1000.58,VALID,0,VALID,93.9817,VALID,0,VALID,23.3695,VALID,67,VALID,0.237891,
2010-07-05, 01:18:04,VALID,1000.57,VALID,0,VALID,93.9817,VALID,0,VALID,23.3695,VALID,67,VALID,0,
2010-07-05, 01:19:04,VALID,1000.55,VALID,0,VALID,93.974,VALID,0,VALID,23.3092,VALID,67,VALID,0,
2010-07-05, 01:20:04,VALID,1000.54,VALID,0,VALID,93.974,VALID,0,VALID,23.3305,VALID,67,VALID,0,
2010-07-05, 01:21:04,VALID,1000.59,VALID,0,VALID,93.9893,VALID,0,VALID,23.311,VALID,67,VALID,0,
2010-07-05, 01:22:04,VALID,1000.6,VALID,0,VALID,93.9893,VALID,0,VALID,23.311,VALID,69,VALID,0.428125,
2010-07-05, 01:23:04,VALID,1000.61,VALID,0,VALID,94.0198,VALID,0,VALID,23.35,VALID,69,VALID,0,
2010-07-05, 01:24:04,VALID,1000.61,VALID,0,VALID,94.0274,VALID,0,VALID,23.3677,VALID,81,VALID,0.712109,
2010-07-05, 01:25:04,VALID,1000.63,VALID,0,VALID,94.0198,VALID,0,VALID,23.428,VALID,81,VALID,0.757031,
2010-07-05, 01:26:04,VALID,1000.6,VALID,0,VALID,94.0198,VALID,0,VALID,23.4475,VALID,81,VALID,0.698438,
2010-07-05, 01:27:04,VALID,1000.63,VALID,0,VALID,94.0274,VALID,0,VALID,23.4263,VALID,81,VALID,0.748047,
2010-07-05, 01:28:04,VALID,1000.61,VALID,0,VALID,94.0503,VALID,0,VALID,23.4671,VALID,81,VALID,0.666797,
2010-07-05, 01:29:04,VALID,1000.64,VALID,0,VALID,94.0427,VALID,0,VALID,23.4866,VALID,102,VALID,0.633594,
2010-07-05, 01:30:04,VALID,1000.62,VALID,0,VALID,94.0274,VALID,0,VALID,23.4475,VALID,102,VALID,0.601563,
2010-07-05, 01:31:04,VALID,1000.59,VALID,0,VALID,94.0274,VALID,0,VALID,23.4475,VALID,102,VALID,0.500391,
2010-07-05, 01:32:04,VALID,1000.63,VALID,0,VALID,94.0427,VALID,0,VALID,23.4475,VALID,102,VALID,0.385547,
2010-07-05, 01:33:04,VALID,1000.61,VALID,0,VALID,94.0351,VALID,0,VALID,23.4458,VALID,102,VALID,0.478125,
2010-07-05, 01:34:04,VALID,1000.6,VALID,0,VALID,94.0732,VALID,0,VALID,23.4671,VALID,102,VALID,0.455469,
2010-07-05, 01:35:04,VALID,1000.6,VALID,0,VALID,94.0427,VALID,0,VALID,23.4458,VALID,102,VALID,0.389453,
2010-07-05, 01:36:04,VALID,1000.6,VALID,0,VALID,94.0427,VALID,0,VALID,23.4263,VALID,102,VALID,0.384375,
2010-07-05, 01:37:04,VALID,1000.59,VALID,0,VALID,94.0656,VALID,0,VALID,23.4671,VALID,102,VALID,0.258984,
2010-07-05, 01:38:04,VALID,1000.61,VALID,0,VALID,94.058,VALID,0,VALID,23.4067,VALID,102,VALID,0.357422,
2010-07-05, 01:39:04,VALID,1000.62,VALID,0,VALID,94.0732,VALID,0,VALID,23.4067,VALID,102,VALID,0.588281,
2010-07-05, 01:40:04,VALID,1000.59,VALID,0,VALID,94.0656,VALID,0,VALID,23.389,VALID,102,VALID,0.328516,
2010-07-05, 01:41:04,VALID,1000.6,VALID,0,VALID,94.0808,VALID,0,VALID,23.3695,VALID,102,VALID,0.0746094,
2010-07-05, 01:42:04,VALID,1000.62,VALID,0,VALID,94.058,VALID,0,VALID,23.35,VALID,102,VALID,0.00195313,
2010-07-05, 01:43:04,VALID,1000.59,VALID,0,VALID,94.0656,VALID,0,VALID,23.3092,VALID,102,VALID,0.0550781,
2010-07-05, 01:44:04,VALID,1000.59,VALID,0,VALID,94.0656,VALID,0,VALID,23.311,VALID,102,VALID,0,
2010-07-05, 01:45:04,VALID,1000.64,VALID,0,VALID,94.0732,VALID,0,VALID,23.2702,VALID,102,VALID,0.0597656,
2010-07-05, 01:46:04,VALID,1000.65,VALID,0,VALID,94.0885,VALID,0,VALID,23.2915,VALID,102,VALID,0,
2010-07-05, 01:47:04,VALID,1000.64,VALID,0,VALID,94.0808,VALID,0,VALID,23.311,VALID,102,VALID,0,
2010-07-05, 01:48:04,VALID,1000.66,VALID,0,VALID,94.0885,VALID,0,VALID,23.3092,VALID,69,VALID,0,
2010-07-05, 01:49:04,VALID,1000.7,VALID,0,VALID,94.0656,VALID,0,VALID,23.311,VALID,62,VALID,0.758594,
2010-07-05, 01:50:04,VALID,1000.71,VALID,0,VALID,94.0961,VALID,0,VALID,23.2702,VALID,62,VALID,0.664844,
2010-07-05, 01:51:04,VALID,1000.71,VALID,0,VALID,94.0808,VALID,0,VALID,23.2719,VALID,49,VALID,0.95,
2010-07-05, 01:52:04,VALID,1000.69,VALID,0,VALID,94.0885,VALID,0,VALID,23.2719,VALID,48,VALID,0.910937,
2010-07-05, 01:53:04,VALID,1000.71,VALID,0,VALID,94.0732,VALID,0,VALID,23.2134,VALID,40,VALID,0.962891,
2010-07-05, 01:54:04,VALID,1000.71,VALID,0,VALID,94.0808,VALID,0,VALID,23.2134,VALID,40,VALID,1.03008,
2010-07-05, 01:55:04,VALID,1000.7,VALID,0,VALID,94.0885,VALID,0,VALID,23.1939,VALID,40,VALID,1.60312,
2010-07-05, 01:56:04,VALID,1000.74,VALID,0,VALID,94.1037,VALID,0,VALID,23.1921,VALID,39,VALID,1.43555,
2010-07-05, 01:57:04,VALID,1000.75,VALID,0,VALID,94.119,VALID,0,VALID,23.2117,VALID,39,VALID,1.42852,
2010-07-05, 01:58:04,VALID,1000.8,VALID,0,VALID,94.119,VALID,0,VALID,23.2524,VALID,39,VALID,1.26094,
2010-07-05, 01:59:04,VALID,1000.8,VALID,0,VALID,94.119,VALID,0,VALID,23.2524,VALID,36,VALID,1.14961,
2010-07-05, 02:00:04,VALID,1000.84,VALID,0,VALID,94.1114,VALID,0,VALID,23.2329,VALID,33,VALID,1.16016,
2010-07-05, 02:01:04,VALID,1000.88,VALID,0,VALID,94.119,VALID,0,VALID,23.2117,VALID,32,VALID,0.939844,
2010-07-05, 02:02:04,VALID,1000.9,VALID,0,VALID,94.1266,VALID,0,VALID,23.2117,VALID,27,VALID,0.773828,
2010-07-05, 02:03:04,VALID,1000.89,VALID,0,VALID,94.119,VALID,0,VALID,23.2329,VALID,24,VALID,0.775391,
2010-07-05, 02:04:04,VALID,1000.88,VALID,0,VALID,94.1037,VALID,0,VALID,23.2329,VALID,24,VALID,0.707812,
2010-07-05, 02:05:04,VALID,1000.9,VALID,0,VALID,94.1266,VALID,0,VALID,23.2134,VALID,24,VALID,0.588672,
2010-07-05, 02:06:04,VALID,1000.88,VALID,0,VALID,94.1419,VALID,0,VALID,23.2117,VALID,28,VALID,0.623828,
2010-07-05, 02:07:04,VALID,1000.86,VALID,0,VALID,94.1266,VALID,0,VALID,23.2719,VALID,63,VALID,0.542969,
2010-07-05, 02:08:04,VALID,1000.84,VALID,0,VALID,94.1495,VALID,0,VALID,23.2915,VALID,63,VALID,0,
2010-07-05, 02:09:04,VALID,1000.85,VALID,0,VALID,94.1648,VALID,0,VALID,23.311,VALID,63,VALID,0,
2010-07-05, 02:10:04,VALID,1000.8,VALID,0,VALID,94.1343,VALID,0,VALID,23.2915,VALID,63,VALID,0,
2010-07-05, 02:11:04,VALID,1000.79,VALID,0,VALID,94.1495,VALID,0,VALID,23.311,VALID,63,VALID,0,
2010-07-05, 02:12:04,VALID,1000.76,VALID,0,VALID,94.1419,VALID,0,VALID,23.311,VALID,63,VALID,0,
2010-07-05, 02:13:04,VALID,1000.73,VALID,0,VALID,94.1419,VALID,0,VALID,23.311,VALID,63,VALID,0,
2010-07-05, 02:14:04,VALID,1000.72,VALID,0,VALID,94.1571,VALID,0,VALID,23.35,VALID,73,VALID,0,
2010-07-05, 02:15:04,VALID,1000.67,VALID,0,VALID,94.1495,VALID,0,VALID,23.35,VALID,73,VALID,0,
2010-07-05, 02:16:04,VALID,1000.67,VALID,0,VALID,94.1648,VALID,0,VALID,23.3695,VALID,73,VALID,0,
2010-07-05, 02:17:04,VALID,1000.64,VALID,0,VALID,94.1495,VALID,0,VALID,23.3695,VALID,73,VALID,0,
2010-07-05, 02:18:04,VALID,1000.62,VALID,0,VALID,94.1648,VALID,0,VALID,23.3695,VALID,73,VALID,0,
2010-07-05, 02:19:04,VALID,1000.59,VALID,0,VALID,94.1343,VALID,0,VALID,23.35,VALID,28,VALID,0,
2010-07-05, 02:20:04,VALID,1000.53,VALID,0,VALID,94.1648,VALID,0,VALID,23.3323,VALID,21,VALID,0,
2010-07-05, 02:21:04,VALID,1000.54,VALID,0,VALID,94.1571,VALID,0,VALID,23.2915,VALID,21,VALID,0,
2010-07-05, 02:22:04,VALID,1000.5,VALID,0,VALID,94.1495,VALID,0,VALID,23.2524,VALID,21,VALID,0,
2010-07-05, 02:23:04,VALID,1000.47,VALID,0,VALID,94.1419,VALID,0,VALID,23.2507,VALID,21,VALID,0,
2010-07-05, 02:24:04,VALID,1000.45,VALID,0,VALID,94.1419,VALID,0,VALID,23.2329,VALID,21,VALID,0,
2010-07-05, 02:25:04,VALID,1000.45,VALID,0,VALID,94.1571,VALID,0,VALID,23.2134,VALID,21,VALID,0,
2010-07-05, 02:26:04,VALID,1000.45,VALID,0,VALID,94.1724,VALID,0,VALID,23.2329,VALID,21,VALID,0,
2010-07-05, 02:27:04,VALID,1000.47,VALID,0,VALID,94.1648,VALID,0,VALID,23.2134,VALID,21,VALID,0,
2010-07-05, 02:28:04,VALID,1000.45,VALID,0,VALID,94.1648,VALID,0,VALID,23.2329,VALID,21,VALID,0,
2010-07-05, 02:29:04,VALID,1000.45,VALID,0,VALID,94.1648,VALID,0,VALID,23.1726,VALID,21,VALID,0,
2010-07-05, 02:30:04,VALID,1000.46,VALID,0,VALID,94.1648,VALID,0,VALID,23.2134,VALID,21,VALID,0,
2010-07-05, 02:31:04,VALID,1000.48,VALID,0,VALID,94.1877,VALID,0,VALID,23.2524,VALID,21,VALID,0,
2010-07-05, 02:32:04,VALID,1000.49,VALID,0,VALID,94.1724,VALID,0,VALID,23.2507,VALID,21,VALID,0,
2010-07-05, 02:33:04,VALID,1000.46,VALID,0,VALID,94.1724,VALID,0,VALID,23.2915,VALID,21,VALID,0,
2010-07-05, 02:34:04,VALID,1000.51,VALID,0,VALID,94.1648,VALID,0,VALID,23.2915,VALID,20,VALID,0,
2010-07-05, 02:35:04,VALID,1000.51,VALID,0,VALID,94.1571,VALID,0,VALID,23.311,VALID,21,VALID,0,
2010-07-05, 02:36:04,VALID,1000.49,VALID,0,VALID,94.1495,VALID,0,VALID,23.2702,VALID,21,VALID,0,
2010-07-05, 02:37:04,VALID,1000.56,VALID,0,VALID,94.1724,VALID,0,VALID,23.2719,VALID,21,VALID,0,
2010-07-05, 02:38:04,VALID,1000.56,VALID,0,VALID,94.1648,VALID,0,VALID,23.2524,VALID,21,VALID,0,
2010-07-05, 02:39:04,VALID,1000.56,VALID,0,VALID,94.1648,VALID,0,VALID,23.2329,VALID,21,VALID,0,
2010-07-05, 02:40:04,VALID,1000.54,VALID,0,VALID,94.1724,VALID,0,VALID,23.2134,VALID,21,VALID,0,
2010-07-05, 02:41:04,VALID,1000.5,VALID,0,VALID,94.1877,VALID,0,VALID,23.1939,VALID,21,VALID,0,
2010-07-05, 02:42:04,VALID,1000.49,VALID,0,VALID,94.1953,VALID,0,VALID,23.1744,VALID,21,VALID,0,
2010-07-05, 02:43:04,VALID,1000.49,VALID,0,VALID,94.1877,VALID,0,VALID,23.1939,VALID,21,VALID,0,
2010-07-05, 02:44:04,VALID,1000.47,VALID,0,VALID,94.1877,VALID,0,VALID,23.1744,VALID,21,VALID,0,
2010-07-05, 02:45:04,VALID,1000.52,VALID,0,VALID,94.1953,VALID,0,VALID,23.1744,VALID,21,VALID,0,
2010-07-05, 02:46:04,VALID,1000.54,VALID,0,VALID,94.2105,VALID,0,VALID,23.1531,VALID,21,VALID,0,
2010-07-05, 02:47:04,VALID,1000.52,VALID,0,VALID,94.1953,VALID,0,VALID,23.1549,VALID,21,VALID,0,
2010-07-05, 02:48:04,VALID,1000.54,VALID,0,VALID,94.2105,VALID,0,VALID,23.1549,VALID,21,VALID,0,
2010-07-05, 02:49:04,VALID,1000.51,VALID,0,VALID,94.1953,VALID,0,VALID,23.1744,VALID,21,VALID,0,
2010-07-05, 02:50:04,VALID,1000.53,VALID,0,VALID,94.1953,VALID,0,VALID,23.1549,VALID,21,VALID,0,
2010-07-05, 02:51:04,VALID,1000.51,VALID,0,VALID,94.2105,VALID,0,VALID,23.2134,VALID,119,VALID,0,
2010-07-05, 02:52:04,VALID,1000.52,VALID,0,VALID,94.1953,VALID,0,VALID,23.2329,VALID,119,VALID,0,
2010-07-05, 02:53:04,VALID,1000.51,VALID,0,VALID,94.2258,VALID,0,VALID,23.2524,VALID,119,VALID,0,
2010-07-05, 02:54:04,VALID,1000.5,VALID,0,VALID,94.2105,VALID,0,VALID,23.2719,VALID,119,VALID,0,
2010-07-05, 02:55:04,VALID,1000.5,VALID,0,VALID,94.2182,VALID,0,VALID,23.2915,VALID,119,VALID,0,
2010-07-05, 02:56:04,VALID,1000.5,VALID,0,VALID,94.2029,VALID,0,VALID,23.2897,VALID,119,VALID,0,
2010-07-05, 02:57:04,VALID,1000.54,VALID,0,VALID,94.2029,VALID,0,VALID,23.35,VALID,109,VALID,0,
2010-07-05, 02:58:04,VALID,1000.57,VALID,0,VALID,94.2105,VALID,0,VALID,23.35,VALID,109,VALID,0,
2010-07-05, 02:59:04,VALID,1000.56,VALID,0,VALID,94.2182,VALID,0,VALID,23.35,VALID,109,VALID,0,
2010-07-05, 03:00:04,VALID,1000.61,VALID,0,VALID,94.1953,VALID,0,VALID,23.3482,VALID,116,VALID,0,
2010-07-05, 03:01:04,VALID,1000.6,VALID,0,VALID,94.2105,VALID,0,VALID,23.3482,VALID,119,VALID,0,
2010-07-05, 03:02:04,VALID,1000.62,VALID,0,VALID,94.2105,VALID,0,VALID,23.3695,VALID,117,VALID,0,
2010-07-05, 03:03:04,VALID,1000.6,VALID,0,VALID,94.18,VALID,0,VALID,23.3695,VALID,115,VALID,0,
2010-07-05, 03:04:04,VALID,1000.61,VALID,0,VALID,94.1953,VALID,0,VALID,23.389,VALID,99,VALID,0,
2010-07-05, 03:05:04,VALID,1000.6,VALID,0,VALID,94.2029,VALID,0,VALID,23.3872,VALID,100,VALID,0,
2010-07-05, 03:06:04,VALID,1000.6,VALID,0,VALID,94.1877,VALID,0,VALID,23.389,VALID,100,VALID,0,
2010-07-05, 03:07:04,VALID,1000.62,VALID,0,VALID,94.1953,VALID,0,VALID,23.389,VALID,100,VALID,0,
2010-07-05, 03:08:04,VALID,1000.62,VALID,0,VALID,94.1953,VALID,0,VALID,23.3695,VALID,108,VALID,1.00352,
2010-07-05, 03:09:04,VALID,1000.6,VALID,0,VALID,94.1877,VALID,0,VALID,23.3482,VALID,108,VALID,0.688672,
2010-07-05, 03:10:04,VALID,1000.58,VALID,0,VALID,94.1953,VALID,0,VALID,23.35,VALID,108,VALID,0.761328,
2010-07-05, 03:11:04,VALID,1000.54,VALID,0,VALID,94.1648,VALID,0,VALID,23.3305,VALID,108,VALID,0.428125,
2010-07-05, 03:12:04,VALID,1000.53,VALID,0,VALID,94.1877,VALID,0,VALID,23.3305,VALID,108,VALID,0.266797,
2010-07-05, 03:13:04,VALID,1000.48,VALID,0,VALID,94.1877,VALID,0,VALID,23.3305,VALID,117,VALID,0.388672,
2010-07-05, 03:14:04,VALID,1000.46,VALID,0,VALID,94.18,VALID,0,VALID,23.3305,VALID,117,VALID,0.028125,
2010-07-05, 03:15:04,VALID,1000.43,VALID,0,VALID,94.1877,VALID,0,VALID,23.3092,VALID,117,VALID,0.184375,
2010-07-05, 03:16:04,VALID,1000.42,VALID,0,VALID,94.1724,VALID,0,VALID,23.3305,VALID,117,VALID,0.434766,
2010-07-05, 03:17:04,VALID,1000.4,VALID,0,VALID,94.1877,VALID,0,VALID,23.35,VALID,144,VALID,0.650781,
2010-07-05, 03:18:04,VALID,1000.34,VALID,0,VALID,94.1648,VALID,0,VALID,23.3695,VALID,144,VALID,0.507031,
2010-07-05, 03:19:04,VALID,1000.29,VALID,0,VALID,94.18,VALID,0,VALID,23.389,VALID,144,VALID,0.266406,
2010-07-05, 03:20:04,VALID,1000.27,VALID,0,VALID,94.1571,VALID,0,VALID,23.428,VALID,163,VALID,0.444531,
2010-07-05, 03:21:04,VALID,1000.25,VALID,0,VALID,94.1571,VALID,0,VALID,23.4475,VALID,163,VALID,0.403516,
2010-07-05, 03:22:04,VALID,1000.22,VALID,0,VALID,94.18,VALID,0,VALID,23.4458,VALID,163,VALID,0.434375,
2010-07-05, 03:23:04,VALID,1000.25,VALID,0,VALID,94.1571,VALID,0,VALID,23.4671,VALID,163,VALID,0.421484,
2010-07-05, 03:24:04,VALID,1000.24,VALID,0,VALID,94.1419,VALID,0,VALID,23.4653,VALID,163,VALID,0.500781,
2010-07-05, 03:25:04,VALID,1000.25,VALID,0,VALID,94.119,VALID,0,VALID,23.4866,VALID,146,VALID,0.843359,
2010-07-05, 03:26:04,VALID,1000.24,VALID,0,VALID,94.1495,VALID,0,VALID,23.4866,VALID,138,VALID,0.783203,
2010-07-05, 03:27:04,VALID,1000.21,VALID,0,VALID,94.1266,VALID,0,VALID,23.5061,VALID,130,VALID,0.592188,
2010-07-05, 03:28:04,VALID,1000.18,VALID,0,VALID,94.1266,VALID,0,VALID,23.4848,VALID,130,VALID,0.349219,
2010-07-05, 03:29:04,VALID,1000.15,VALID,0,VALID,94.1266,VALID,0,VALID,23.5061,VALID,130,VALID,0,
2010-07-05, 03:30:04,VALID,1000.13,VALID,0,VALID,94.119,VALID,0,VALID,23.5061,VALID,130,VALID,0.191016,
2010-07-05, 03:31:04,VALID,1000.17,VALID,0,VALID,94.119,VALID,0,VALID,23.5061,VALID,130,VALID,0.280078,
2010-07-05, 03:32:04,VALID,1000.19,VALID,0,VALID,94.1037,VALID,0,VALID,23.4848,VALID,130,VALID,0.326172,
2010-07-05, 03:33:04,VALID,1000.21,VALID,0,VALID,94.1114,VALID,0,VALID,23.4866,VALID,130,VALID,0.319141,
2010-07-05, 03:34:04,VALID,1000.16,VALID,0,VALID,94.0885,VALID,0,VALID,23.4653,VALID,130,VALID,0.291016,
2010-07-05, 03:35:04,VALID,1000.21,VALID,0,VALID,94.0961,VALID,0,VALID,23.4653,VALID,130,VALID,0.521484,
2010-07-05, 03:36:04,VALID,1000.22,VALID,0,VALID,94.0961,VALID,0,VALID,23.4653,VALID,129,VALID,0.647266,
2010-07-05, 03:37:04,VALID,1000.25,VALID,0,VALID,94.0808,VALID,0,VALID,23.4866,VALID,102,VALID,0.607813,
2010-07-05, 03:38:04,VALID,1000.23,VALID,0,VALID,94.0808,VALID,0,VALID,23.4866,VALID,89,VALID,0.560938,
2010-07-05, 03:39:04,VALID,1000.21,VALID,0,VALID,94.0732,VALID,0,VALID,23.4866,VALID,86,VALID,0.525391,
2010-07-05, 03:40:04,VALID,1000.23,VALID,0,VALID,94.0732,VALID,0,VALID,23.4458,VALID,86,VALID,0.393359,
2010-07-05, 03:41:04,VALID,1000.24,VALID,0,VALID,94.058,VALID,0,VALID,23.4458,VALID,86,VALID,0.208203,
2010-07-05, 03:42:04,VALID,1000.24,VALID,0,VALID,94.0503,VALID,0,VALID,23.4475,VALID,86,VALID,0.04375,
2010-07-05, 03:43:04,VALID,1000.26,VALID,0,VALID,94.0427,VALID,0,VALID,23.4475,VALID,86,VALID,0.312109,
2010-07-05, 03:44:04,VALID,1000.27,VALID,0,VALID,94.058,VALID,0,VALID,23.428,VALID,86,VALID,0.390234,
2010-07-05, 03:45:04,VALID,1000.3,VALID,0,VALID,94.0656,VALID,0,VALID,23.428,VALID,86,VALID,0.554688,
2010-07-05, 03:46:04,VALID,1000.29,VALID,0,VALID,94.0427,VALID,0,VALID,23.428,VALID,86,VALID,0.633203,
2010-07-05, 03:47:04,VALID,1000.29,VALID,0,VALID,94.0503,VALID,0,VALID,23.428,VALID,86,VALID,0.442969,
2010-07-05, 03:48:04,VALID,1000.33,VALID,0,VALID,94.0503,VALID,0,VALID,23.428,VALID,93,VALID,0.534375,
2010-07-05, 03:49:04,VALID,1000.3,VALID,0,VALID,94.0503,VALID,0,VALID,23.4067,VALID,93,VALID,0,
2010-07-05, 03:50:04,VALID,1000.28,VALID,0,VALID,94.0351,VALID,0,VALID,23.4067,VALID,93,VALID,0,
2010-07-05, 03:51:04,VALID,1000.26,VALID,0,VALID,94.0503,VALID,0,VALID,23.428,VALID,93,VALID,0,
2010-07-05, 03:52:04,VALID,1000.25,VALID,0,VALID,94.0427,VALID,0,VALID,23.3872,VALID,93,VALID,0,